• MPC Preparation (Info)

  • MPEC 2023-O100 : 2023 OY3

    The following Minor Planet Electronic Circular may be linked-to from your own Web pages, but must not otherwise be redistributed electronically.

    A form allowing access to any MPEC is at the bottom of this page.


    Read MPEC 2023-O99 Read MPEC 2023-O101


    M.P.E.C. 2023-O100                                Issued 2023 July 28, 03:26 UT
    
         The Minor Planet Electronic Circulars contain information on unusual
             minor planets, routine data on comets and natural satellites,
             and occasional editorial announcements.  They are published
        on behalf of Division F of the International Astronomical Union by the
              Minor Planet Center, Smithsonian Astrophysical Observatory,
                              Cambridge, MA 02138, U.S.A.
    			  
                 Prepared using the Tamkin Foundation Computer Network
    
                                  MPC@CFA.HARVARD.EDU
                URL https://www.minorplanetcenter.net/    ISSN 1523-6714
    
                                    2023 OY3                                 
    
    
    Observations:
         K23O03Y* C2023 07 26.53969722 29 10.541+07 09 06.95         20.42wXEO100F51
         K23O03Y  C2023 07 26.55217922 29 19.883+07 03 57.33         20.42wXEO100F51
         K23O03Y  C2023 07 26.56602322 29 30.279+06 58 12.80         20.18wXEO100F51
         K23O03Y KB2023 07 26.95658122 35 13.11 +04 11 00.1          20.1 GXEO100I93
         K23O03Y KB2023 07 26.96178922 35 17.38 +04 08 44.2                XEO100I93
         K23O03Y KB2023 07 26.96690722 35 21.59 +04 06 31.1          20.2 GXEO100I93
         K23O03Y bC2023 07 27.03162922 36 11.88 +03 38 14.1          20.2 GVEO100L01
         K23O03Y bC2023 07 27.03360422 36 13.46 +03 37 22.8          19.7 GVEO100L01
         K23O03Y IC2023 07 27.03508722 36 14.69 +03 36 44.0          20.0 GVEO100L01
         K23O03Y IC2023 07 27.03656722 36 15.88 +03 36 05.7          19.9 GVEO100L01
         K23O03Y bC2023 07 27.03804822 36 17.06 +03 35 25.5          19.8 GVEO100L01
         K23O03Y KC2023 07 27.37295 22 41 11.51 +01 05 46.2          20.0 RqEO100H36
         K23O03Y  C2023 07 27.37592422 41 18.588+01 04 38.97         20.6 GVEO100654
         K23O03Y  C2023 07 27.37993422 41 21.908+01 02 49.11         20.6 GVEO100654
         K23O03Y KC2023 07 27.38349 22 41 20.17 +01 00 57.9          19.7 RqEO100H36
         K23O03Y  C2023 07 27.41765922 41 53.004+00 45 34.50         20.5 GVEO100654
         K23O03Y  C2023 07 27.42161922 41 56.284+00 43 45.68         20.5 GVEO100654
         K23O03Y KB2023 07 28.01139 22 51 06.97 -03 50 22.2          19.6 VZEO100M49
         K23O03Y KB2023 07 28.02098 22 51 15.30 -03 55 00.2          20.0 VZEO100M49
         K23O03Y KB2023 07 28.03056 22 51 23.59 -03 59 38.5          19.8 VZEO100M49
    
    Observer details:
    654 Table Mountain Observatory, Wrightwood-PHMC.  Observers N. Evans, P. Choi,
        N. Saini, C. Zhai, R. Trahan, M. Shao.  1.0-m Reflector + CCD.
    F51 Pan-STARRS 1, Haleakala.  Observers J. Bulger, T. Lowe, P. Minguez, A.
        Schultz, I. Smith.  Measurers K. Chambers, T. de Boer, J. Bulger, J.
        Fairlamb, H. Gao, M. Huber, C.-C. Lin, T. Lowe, E. Magnier, P. Minguez, Y.
        Ramanjooloo, A. Schultz, I. Smith, R. Wainscoat, R. Weryk.  1.8-m Ritchey-
        Chretien + CCD.
    H36 Sandlot Observatory, Scranton.  Observer G. Hug.  .57 meter f/4.2 + CCD.
    I93 St Pardon de Conques.  Observer F. Losse.  0.40-m f/3.7 reflector + CMO.
    L01 Visnjan Observatory, Tican.  Observers K. Korlevic, L. Pavletic.  Measurer
        K. Korlevic.  1.0-m f/2.9 reflector + CCD.
    M49 IAS Remote Observatory, Hakos.  Observers D. Husar, M. Junius.  Measurer
        D. Husar.  0.25-m f/4.6 reflector + CMO.
    
    Orbital elements:
    2023 OY3                                                 Earth MOID = 0.0296 AU
    Epoch 2023 Sept. 13.0 TT = JDT 2460200.5                MPC                     
    M  14.59906              (2000.0)            P               Q                  
    n   0.78338896     Peri.  207.50950     +0.87280972     +0.40343588             
    a   1.1654252      Node   125.99959     -0.36166503     +0.91252047             
    e   0.1133908      Incl.   19.84684     -0.32772182     +0.06742309             
    P   1.26           H   25.70          G   0.15           U   8                  
    Residuals in seconds of arc
    230726 F51  0.1-  0.3+    230727 L01  0.2-  0.8+    230727 H36  0.3-  0.1-
    230726 F51  0.0   0.1+    230727 L01  0.3+  1.0+    230727 654  0.1-  0.0
    230726 F51  0.2+  0.6-    230727 L01  0.2+  1.7+    230727 654  0.0   0.0
    230726 I93  0.0   0.1+    230727 L01  0.0   0.6+    230728 M49  0.1-  0.2+
    230726 I93  0.2-  0.1-    230727 H36  0.4+  0.4-    230728 M49  0.1+  0.2+
    230726 I93  0.1-  0.2+    230727 654  0.0   0.0     230728 M49  0.1-  0.2-
    230727 L01  0.0   0.1+    230727 654  0.1+  0.1-
    
    Ephemeris:
    2023 OY3                 a,e,i = 1.17, 0.11, 20                  q = 1.0333
    Date    TT    R. A. (2000) Decl.     Delta      r    Elong.  Phase     V
    2023 06 28    20 01 43.4 +48 36 56   0.1914  1.0817   104.9    65.3    24.6
    ...
    2023 07 13    20 42 59.6 +43 51 44   0.1069  1.0612   111.9    62.7    23.2
    ...
    2023 07 21    21 29 47.2 +32 05 40   0.06360 1.0522   123.0    54.1    21.8
    ...
    2023 07 27    22 35 41.9 +03 54 51   0.03989 1.0465   139.9    38.7    20.3
    2023 07 28    22 50 51.2 -03 45 47   0.03802 1.0456   141.6    37.1    20.2
    2023 07 29    23 07 24.7 -12 01 07   0.03707 1.0448   141.7    37.0    20.1
    ...
    2023 08 04    01 11 07.7 -51 12 31   0.05017 1.0403   119.6    58.0    21.4
    ...
    2023 08 12    03 38 39.0 -63 45 04   0.08992 1.0361   102.1    73.1    23.1
    ...
    2023 08 27    05 23 20.6 -64 57 49   0.1712  1.0333    92.9    77.6    24.6
    
    A. U. Tomatic                (C) Copyright 2023 MPC           M.P.E.C. 2023-O100
    


    Read MPEC 2023-O99 Read MPEC 2023-O101


    MPEC number:

    Enter an MPEC number in one of the following forms:

    • 1997-B01 (the full form)
    • J97B01 (the packed version of the full form)
    • B01 (the abbreviated form)